Location: Peebles
(55.6412°N, 3.1714°W)
Time: 21:09:33
(UTC+01:00)

deb AGENA D - Pass Details

Date: 12 July 2022
Orbit: 951 x 1019 km, 99.8° (Epoch: 17 August)

Event Time Altitude Azimuth Distance (km) Brightness Sun altitude
Exits shadow 03:37:28 - 217° (SW) 2,966 ? -6.9°
Reaches altitude 10° 03:38:02 10° 220° (SW) 2,803 ? -6.9°
Maximum altitude 03:42:55 23° 271° (W) 2,015 ? -6.5°
Drops below altitude 10° 03:47:48 10° 322° (NW) 2,800 ? -6.1°
Sets 03:50:53 0° 337° (NNW) 3,746 ? -5.9°
